sat.trackr.live / text

‹ back to catalog

STARLINK-4718

NORAD 53773 · 2022-111A

PAYLOAD ACTIVE UNKNOWN

§ Identity

Operator
Country
US
Launch date
2022-09-11
Launch site
AFETR
Launch vehicle
Mass (kg)
RCS (m²)

Purposes: comms

External: N2YO · Heavens-Above · Gunter

§ Orbital elements

Epoch: 2026-05-24T10:43:28.552800Z

Period
95.44 min
Inclination
53.2164°
Eccentricity
0.0001314
Mean motion
15.08837060 rev/d
Perigee alt
538.8 km
Apogee alt
540.7 km
Semi-major
6,917.9 km
B*
2.8290e-5
RAAN
303.9549°
Arg perigee
91.9518°
Mean anomaly
268.1625°
Rev number
20,528

§ Raw data

STARLINK-47181 53773U 22111A   26144.44685825  .00000162  00000+0  28290-4 0  99942 53773  53.2164 303.9549 0001314  91.9518 268.1625 15.08837060205288

JSON: /api/v1/satellites/53773 · /tle

For live sub-satellite position, see the globe view (requires WebGL).

§ Visibility from observer

Set your observer location to see the next 7 days of passes ≥ 10°. The values pass through the URL so the page stays shareable.

No JS? Fill the form by hand. The geolocation button needs JavaScript.